Theta_e
277 276 274 272 273 275 275 273 273 274 276 276 276 277 279 281 280 279 281 281 280 278 278 278 278 278 280 286 289 291 292 293 293 294 294 294 294 294 294 294 294 294 295 295 295 295 295 295 295 295 295 295 295 295 295 295 295 295 295 295 295 295 296 296 297 297 297 298 298 298 298 298 299 299 299 299 299 299 299 298 298 298 298 299 299 299
276 276 275 272 273 275 276 273 273 274 276 276 277 278 279 277 278 279 279 281 280 279 278 278 278 278 276 282 287 290 291 292 293 293 293 293 293 293 294 293 294 294 294 294 294 294 294 294 294 294 294 294 294 294 294 294 294 294 294 294 294 295 295 296 296 297 297 297 298 298 298 298 299 299 299 299 298 298 298 297 298 298 298 298 299 299
275 276 276 274 273 274 276 275 273 273 274 275 276 277 275 275 277 279 279 280 280 279 278 278 278 278 277 280 285 289 291 291 292 292 292 292 293 293 293 293 293 293 293 294 294 294 294 294 294 294 294 294 294 294 293 293 293 293 294 294 294 295 295 295 296 296 297 297 298 298 298 298 298 298 298 297 297 297 297 297 298 298 298 298 298 298
274 276 276 275 274 274 274 274 274 273 274 275 276 275 273 275 276 278 278 278 278 277 278 277 277 277 277 279 283 288 290 291 291 291 291 292 292 292 292 292 292 293 293 293 293 293 293 293 293 293 293 293 293 293 293 293 293 293 293 294 294 295 295 295 296 296 296 297 297 297 297 298 297 297 297 297 297 297 297 298 298 298 298 298 298 298
274 275 275 275 275 275 274 273 274 275 276 276 274 273 273 274 276 277 277 277 277 277 278 277 277 277 278 278 281 287 289 290 290 290 291 291 291 291 291 291 292 292 292 292 292 292 292 292 293 293 293 293 292 293 292 293 293 293 294 294 294 295 295 295 295 296 296 296 297 297 297 297 297 297 296 296 297 297 297 297 297 298 298 298 298 298
274 275 275 275 275 276 275 274 275 276 276 275 275 274 274 274 275 276 276 277 278 278 278 278 278 277 277 278 282 287 288 289 289 289 290 290 290 290 290 291 291 291 291 292 292 292 292 292 292 292 292 292 292 292 292 292 293 293 294 294 294 295 295 295 295 296 296 296 296 296 296 296 296 296 296 296 296 296 296 297 297 297 297 298 298 298
274 274 274 274 274 275 275 274 275 276 276 276 276 276 275 275 275 276 276 276 277 278 278 279 278 277 277 278 282 286 286 287 288 288 289 289 289 289 289 290 290 290 291 291 291 291 291 291 292 291 292 292 291 292 292 292 293 293 294 294 294 295 295 295 295 295 296 296 296 295 295 295 295 295 295 295 295 295 296 296 296 296 297 297 297 298
275 274 273 273 274 275 275 275 275 275 275 276 276 276 276 276 277 276 275 275 275 276 277 279 279 278 277 277 279 282 282 283 283 284 286 287 288 288 289 289 289 289 290 290 290 290 291 291 291 291 291 291 291 291 292 292 293 293 293 294 294 294 294 295 295 295 295 295 295 295 295 295 295 295 295 294 294 294 295 295 295 296 296 296 296 297
274 275 274 273 273 274 276 275 274 273 273 274 275 276 276 277 277 278 277 276 275 276 277 278 279 279 279 278 278 279 282 282 282 282 283 284 284 286 287 288 288 289 289 289 289 290 290 290 290 290 290 290 291 291 292 292 292 293 293 293 294 294 294 294 294 294 294 295 295 295 294 294 294 294 294 294 294 294 294 294 294 295 295 295 296 296
272 273 274 273 273 273 275 276 275 273 271 273 274 274 275 276 278 279 278 278 277 278 278 278 279 279 279 279 278 279 282 282 284 285 285 285 285 286 286 286 287 287 288 288 288 289 289 289 290 290 290 290 290 291 291 292 292 293 293 293 293 293 293 294 294 294 294 294 294 294 294 294 294 294 293 293 293 293 293 293 294 294 294 294 295 295
273 272 273 273 273 273 273 274 274 273 271 273 274 274 274 276 277 278 278 278 279 279 279 278 278 279 279 279 280 280 280 280 281 283 285 285 286 286 286 285 286 286 287 287 287 288 288 289 289 289 289 289 290 290 291 291 292 292 293 293 293 293 293 293 294 294 294 294 294 294 294 293 293 293 293 293 293 293 293 293 293 293 293 293 294 294
274 273 273 273 274 274 274 274 274 274 273 275 276 276 276 276 276 277 277 278 278 279 279 279 278 278 278 278 279 279 279 279 280 280 281 282 283 283 283 283 284 284 285 285 286 286 287 288 288 288 288 288 289 290 290 291 291 292 292 292 292 293 293 293 293 293 293 293 293 293 293 293 293 293 292 292 292 292 293 293 293 293 293 293 293 294
273 273 273 273 274 274 274 275 275 275 275 276 276 277 277 277 277 277 276 277 277 278 278 278 278 278 278 277 277 278 279 280 280 280 280 280 280 281 281 281 281 281 281 281 282 283 286 287 287 286 287 287 288 289 290 291 291 292 292 292 292 292 292 292 293 292 292 293 293 292 292 292 292 292 292 292 292 292 292 292 292 292 292 293 293 294
273 273 273 274 274 274 273 274 275 275 275 275 276 277 278 278 278 277 277 277 277 278 277 278 278 278 278 276 276 277 278 280 280 280 280 280 280 280 280 279 279 280 280 280 280 281 285 285 284 284 286 286 287 289 290 291 291 291 291 291 292 292 292 292 292 292 292 292 292 292 292 292 292 292 292 292 292 292 292 292 292 292 292 293 293 294
272 273 274 274 274 274 274 274 274 275 275 275 275 276 276 277 277 278 277 277 277 278 277 277 278 278 277 276 276 276 279 279 279 279 279 279 280 279 279 279 279 279 280 280 280 281 283 283 282 282 283 285 286 288 289 290 290 291 291 291 291 291 291 291 291 291 291 291 291 291 291 291 292 292 292 292 292 292 292 292 292 292 292 293 293 293
272 273 274 274 274 274 274 274 274 275 275 275 275 276 277 277 278 278 277 277 277 277 277 277 277 277 278 277 277 278 280 279 279 278 278 278 279 279 278 278 278 279 280 280 280 280 281 281 281 281 282 284 287 288 289 290 290 290 291 291 291 291 291 291 291 291 291 291 291 291 291 291 291 292 292 292 292 292 291 291 292 292 292 293 293 292
272 273 273 274 274 274 274 274 274 274 274 274 275 276 276 277 277 277 276 277 277 277 277 276 276 276 277 278 278 279 280 279 278 278 277 278 279 279 277 277 278 279 280 280 280 280 280 280 280 281 282 285 287 289 289 289 290 290 290 290 290 290 290 290 290 290 290 290 291 291 291 291 291 291 291 292 291 291 291 291 291 292 292 292 292 291
272 272 273 274 274 275 274 274 273 273 273 274 276 276 276 276 276 276 275 276 276 276 276 275 274 274 275 276 278 279 280 279 278 277 277 277 278 278 276 277 278 279 279 279 280 280 280 280 280 281 283 286 288 288 289 289 289 290 290 290 290 290 290 290 290 290 290 290 290 290 291 291 291 291 291 291 291 291 291 291 291 292 292 292 291 290
273 272 273 274 274 274 274 274 274 274 275 276 277 278 278 277 276 276 275 276 276 276 275 275 274 274 274 275 277 279 279 278 277 277 276 277 278 278 276 277 278 279 279 279 280 280 279 279 281 283 285 287 288 288 289 289 289 289 289 289 289 289 289 289 289 289 290 290 290 290 290 291 291 291 291 291 291 291 290 291 291 292 292 291 290 290
273 273 273 274 274 273 273 275 276 277 278 279 279 279 278 278 277 277 276 277 276 276 275 274 274 274 274 275 277 278 279 278 276 276 275 276 277 277 275 277 278 279 278 279 279 279 279 279 280 282 284 286 287 288 288 288 289 289 289 289 289 289 289 289 289 289 289 290 290 290 290 291 291 291 291 291 290 290 290 291 291 292 292 291 290 289
274 274 273 273 274 274 275 276 277 278 281 281 279 277 278 278 278 278 278 278 277 276 276 275 274 274 275 275 277 278 278 276 275 274 275 275 276 276 276 277 277 278 278 279 279 279 279 279 279 280 283 285 287 287 288 288 288 289 289 289 289 288 288 288 289 289 289 289 290 290 290 290 291 291 290 290 290 290 290 291 291 291 291 290 289 289
276 275 273 272 274 276 279 277 278 281 283 281 279 279 280 279 279 279 279 279 278 277 277 276 276 276 276 276 277 277 276 274 273 273 273 274 275 276 276 277 278 278 278 278 279 279 279 279 279 280 283 286 287 287 287 288 288 288 288 288 288 288 288 288 288 289 289 289 289 290 290 290 290 290 290 290 290 290 290 291 291 291 291 290 289 289
276 276 274 272 274 276 278 278 279 280 282 281 280 280 280 280 279 279 279 278 278 277 277 277 277 277 276 276 276 276 275 274 273 272 272 273 275 276 277 278 278 278 278 278 278 279 279 279 279 280 283 285 286 287 287 287 288 288 288 288 288 288 288 288 288 288 289 289 289 289 290 290 290 290 290 290 290 290 290 291 291 291 290 289 289 288
275 275 274 274 275 276 277 278 279 279 280 280 280 280 279 279 279 279 278 277 276 276 276 276 276 276 275 275 275 275 274 273 272 272 272 273 275 276 277 278 278 277 278 278 278 278 278 278 279 279 280 283 285 286 287 287 287 288 288 288 288 288 288 288 288 288 288 289 289 289 289 289 289 289 289 289 289 290 290 291 291 291 290 289 288 288
276 276 276 277 278 279 280 282 283 283 282 280 280 280 280 280 280 280 277 275 274 274 274 274 275 275 274 276 276 274 274 272 272 273 273 274 275 276 277 277 277 277 277 278 278 278 278 278 278 277 277 279 283 286 286 287 287 287 287 287 287 287 287 287 288 288 288 288 289 289 289 289 289 289 289 289 289 289 290 290 290 290 289 288 288 288
282 282 282 284 286 288 289 289 290 289 287 285 283 281 280 279 277 276 274 273 273 273 274 274 275 275 275 275 275 275 276 273 273 273 274 274 275 276 277 277 276 276 277 278 278 278 278 278 277 276 275 276 281 285 286 286 287 287 287 287 287 287 287 287 287 288 288 288 288 289 289 289 289 289 289 289 289 289 289 290 290 290 289 288 288 287
289 289 290 291 291 290 290 290 289 289 289 289 287 285 281 278 276 275 275 274 273 273 274 273 274 275 275 275 275 275 276 275 274 273 273 274 275 275 276 277 277 276 277 277 278 279 280 279 277 276 275 276 279 283 285 286 286 286 286 286 286 286 287 287 287 287 288 288 288 288 289 289 288 288 288 289 289 289 289 290 290 289 288 287 286 286
289 290 289 290 289 289 289 288 288 288 288 288 288 287 283 278 276 275 275 274 273 273 273 273 273 273 274 274 275 275 275 275 275 274 274 274 275 275 276 276 276 276 276 277 278 279 280 279 277 275 274 276 279 281 284 285 285 285 285 285 286 286 286 286 287 287 287 288 288 288 288 288 288 288 288 288 289 289 289 289 289 289 288 286 284 283
287 288 288 288 287 287 286 285 286 287 287 287 287 286 283 278 276 275 274 274 273 273 273 274 273 273 273 273 274 274 274 274 275 275 275 275 275 275 276 276 276 276 276 276 277 277 276 276 274 273 274 278 280 280 281 283 283 284 284 284 285 285 286 286 286 287 287 287 288 288 288 288 288 288 288 288 288 289 289 289 289 288 286 284 282 281
281 282 282 283 283 283 282 281 282 284 285 285 285 285 283 278 276 275 275 274 274 273 273 273 273 272 272 273 273 273 273 273 274 275 275 275 275 275 276 276 275 275 275 275 276 275 274 275 275 275 277 280 280 279 278 279 280 281 281 282 283 284 285 286 286 286 287 287 287 287 287 287 288 288 288 288 288 288 289 289 289 287 285 283 282 282
277 278 277 277 277 278 279 279 280 281 282 283 283 283 281 278 276 275 274 274 274 274 273 273 273 272 272 271 271 271 273 273 275 277 275 275 275 275 275 274 275 274 274 275 275 274 275 276 277 278 279 280 279 279 279 279 279 279 279 280 281 282 284 285 285 286 286 287 287 287 287 287 287 287 288 288 288 288 288 289 289 287 285 283 283 283
276 277 277 276 276 276 277 278 278 278 279 279 279 280 280 279 277 276 275 274 274 273 273 272 272 272 272 271 271 271 273 273 276 278 277 275 275 275 274 273 274 274 275 276 275 275 274 275 277 278 279 279 278 278 279 280 279 279 279 279 279 280 283 284 285 285 285 286 286 286 286 286 287 287 287 287 288 288 288 289 289 287 285 284 283 283
277 277 276 277 276 276 277 277 277 277 278 277 277 277 278 278 279 279 277 275 274 274 273 272 272 272 272 271 271 272 273 273 277 280 279 276 275 274 274 273 274 275 275 276 276 276 276 276 277 278 278 278 278 278 278 279 279 279 279 279 278 279 282 283 283 283 284 285 285 285 286 286 286 287 287 287 287 288 288 288 288 288 286 284 284 283
278 278 277 277 276 276 277 277 277 277 278 277 278 278 278 278 278 278 278 276 275 274 273 273 272 272 272 271 271 272 273 274 277 281 281 276 275 274 274 273 274 275 275 276 277 277 277 277 277 277 277 278 278 278 277 278 279 279 278 278 278 279 280 281 281 282 282 283 282 282 283 284 285 286 286 286 287 287 288 288 288 288 288 286 285 284
277 278 277 277 277 277 278 278 278 278 278 278 278 278 278 278 277 277 277 276 275 274 273 273 273 273 272 272 272 272 273 274 277 281 281 277 275 274 274 274 275 275 276 276 276 276 276 276 276 277 277 277 277 277 277 277 278 279 278 279 279 279 279 280 281 281 281 281 281 281 281 282 283 284 284 285 286 287 288 288 288 288 288 288 287 285
277 277 278 277 278 278 278 278 278 278 278 278 277 277 278 277 277 276 276 276 276 276 276 275 275 274 273 273 273 273 274 275 278 280 281 278 275 274 274 275 276 276 276 276 276 275 275 275 276 276 276 276 276 276 277 278 278 279 279 279 279 280 280 281 281 281 281 281 281 281 281 282 282 282 283 285 286 287 287 287 287 287 288 288 288 287
277 277 278 278 277 277 278 277 278 278 278 278 278 278 278 277 277 277 276 275 275 275 275 276 276 276 276 275 274 274 275 276 277 278 279 277 276 275 274 275 277 277 276 276 275 275 275 274 275 275 275 275 275 276 277 278 278 278 278 279 279 280 280 281 282 282 281 281 281 282 282 282 282 283 283 285 286 286 286 286 287 287 287 288 288 287
277 277 278 278 277 277 277 277 277 278 278 278 278 278 278 278 277 277 277 275 274 273 273 274 274 274 277 278 277 275 275 275 275 275 276 275 275 275 275 275 276 277 276 276 275 275 274 274 273 273 273 274 275 276 276 277 277 277 278 279 280 280 280 281 282 282 282 282 282 282 283 283 282 282 282 283 283 283 283 283 284 286 287 287 287 287
277 277 277 278 278 277 277 277 277 278 278 278 278 279 278 278 278 277 276 275 274 273 273 273 273 273 273 273 275 278 278 276 276 275 275 274 274 275 276 275 275 275 275 274 273 273 273 273 273 273 273 273 274 275 275 276 276 276 277 279 279 280 281 281 282 282 282 282 282 282 282 282 282 282 282 282 282 282 281 281 282 284 285 284 284 285
277 277 277 278 278 278 277 278 278 278 278 279 279 279 278 278 278 277 276 276 276 275 274 273 273 274 274 276 277 277 276 275 276 276 274 273 273 273 275 275 275 274 274 272 271 271 271 271 272 273 274 273 273 274 274 275 276 277 279 278 278 279 281 282 282 282 282 281 281 282 282 282 282 282 282 282 282 282 282 282 283 284 285 284 283 282
277 277 277 277 278 278 278 279 279 279 279 278 278 277 277 277 277 277 277 277 277 277 276 276 276 274 273 272 272 272 273 274 276 276 274 274 273 272 274 274 275 274 273 272 271 270 271 270 270 270 271 271 272 273 274 275 277 279 280 278 278 279 281 282 282 282 281 281 282 282 282 283 283 283 282 282 282 282 282 282 283 284 285 284 282 281
278 277 277 277 277 278 278 278 279 279 279 278 277 276 276 277 276 276 276 276 276 276 276 276 275 274 273 273 273 273 273 273 274 276 275 274 273 272 272 274 274 274 273 272 271 271 271 271 271 271 270 270 270 271 272 274 277 278 279 279 279 280 281 281 281 281 281 281 282 282 283 283 282 282 283 282 282 281 283 283 284 285 285 283 282 280
277 277 277 277 277 278 279 279 279 278 278 277 276 276 276 276 276 277 276 275 275 276 276 276 275 274 273 273 273 274 273 272 273 274 276 275 274 274 273 273 272 272 273 272 271 271 272 272 272 271 271 270 269 270 272 274 276 278 279 280 280 279 278 279 280 280 281 282 282 282 282 282 282 282 282 282 282 282 282 284 285 285 285 283 281 279
277 277 277 277 278 278 278 278 277 277 277 276 276 276 276 276 276 277 276 275 275 276 276 275 275 274 273 273 273 274 274 273 273 273 275 278 278 277 274 273 272 272 272 271 271 271 270 271 271 270 270 271 271 271 273 274 276 278 279 281 281 280 278 279 280 281 281 281 282 283 283 283 283 282 281 281 281 281 282 282 282 282 284 283 281 279
277 277 278 278 278 278 277 277 277 277 276 276 276 276 276 276 276 276 275 275 275 275 275 275 274 274 274 274 274 274 274 274 274 274 274 278 280 280 276 275 274 273 272 271 271 271 271 271 271 271 270 270 271 273 275 276 277 278 280 281 281 280 280 281 282 282 282 282 282 283 283 283 283 282 281 281 281 281 282 282 282 282 283 282 280 280
277 277 278 277 277 277 277 277 276 276 276 276 276 276 275 275 275 275 275 274 274 274 274 274 273 273 273 274 274 275 275 274 275 275 276 276 275 276 277 277 277 276 275 273 272 271 271 271 271 270 270 269 270 272 275 277 278 279 279 280 280 280 281 282 282 282 282 282 283 283 284 283 283 282 282 281 281 281 281 281 281 281 282 282 282 280
277 277 277 277 277 276 276 276 276 276 275 275 275 275 275 275 275 275 275 274 274 274 274 274 273 272 272 273 274 275 274 274 274 275 276 276 276 276 276 277 278 278 276 275 274 273 273 272 271 270 269 269 270 273 276 278 279 279 279 280 280 280 281 281 282 283 283 283 284 284 284 283 282 282 281 281 281 281 281 280 279 280 281 282 281 281
277 277 277 277 276 276 276 276 276 275 275 275 275 275 274 275 275 275 274 274 273 274 274 273 273 272 272 273 274 275 275 274 274 275 275 276 277 277 277 277 278 278 278 278 277 276 275 273 271 270 270 270 271 273 276 278 279 279 279 280 280 281 281 282 283 283 284 284 284 284 284 283 283 282 281 281 281 281 281 280 280 280 280 281 282 281
277 277 277 276 276 275 275 275 275 275 275 275 274 274 274 275 275 276 274 273 273 273 272 272 272 273 273 273 274 275 275 275 275 275 275 276 277 277 277 277 277 277 277 277 276 276 276 275 274 273 273 272 272 273 275 278 279 280 280 280 281 281 281 282 283 284 284 284 284 284 284 284 283 283 282 281 281 281 281 281 281 280 281 282 282 282
277 277 277 276 276 275 275 275 275 275 275 275 274 274 273 273 273 273 273 273 273 272 272 271 272 273 274 274 274 274 275 274 274 274 275 276 277 277 277 277 277 277 277 277 277 277 276 277 277 278 280 281 281 280 279 278 278 279 279 281 282 282 282 283 283 284 284 284 284 284 284 284 284 283 282 281 281 281 281 282 282 282 282 283 284 284
277 277 276 276 276 275 275 275 275 275 275 275 274 274 273 273 273 273 272 273 273 272 272 271 271 273 274 274 274 274 274 274 274 275 275 276 277 277 277 277 277 277 276 276 276 277 277 277 277 279 282 286 287 285 281 280 279 280 280 281 282 283 283 283 283 284 284 284 284 284 284 283 283 283 282 282 281 281 281 281 282 282 283 284 284 285
Wind_Speed
1 2 1 1 1 1 2 1 1 1 3 3 3 3 4 4 4 4 4 3 3 3 4 4 4 5 6 10 12 14 14 14 14 14 14 15 15 15 15 16 16 17 17 17 17 18 18 18 18 18 19 19 19 19 19 19 20 20 20 20 20 20 20 21 21 21 21 21 21 21 21 21 21 22 22 21 21 21 21 21 21 22 22 23 23 23
2 2 1 1 2 1 2 2 0 0 2 3 3 4 4 4 4 4 4 3 3 3 3 4 4 5 5 7 10 13 14 14 14 14 14 15 15 15 16 16 16 17 17 17 17 17 18 18 18 18 18 19 19 19 19 19 19 19 19 20 20 20 20 20 20 21 21 21 21 21 22 21 21 21 21 21 20 20 20 21 21 22 22 22 23 23
2 3 2 2 2 1 2 2 1 1 1 2 3 3 3 3 3 4 4 4 4 4 3 3 4 4 5 6 9 12 13 14 14 14 15 15 15 16 16 16 17 17 17 17 17 17 17 18 18 18 18 19 19 19 19 19 19 19 19 19 20 20 20 20 20 21 21 21 21 21 21 21 21 20 20 20 20 20 20 20 21 21 22 22 22 22
2 2 2 2 2 1 2 2 2 2 2 2 3 3 2 2 2 3 3 3 4 4 4 3 3 4 4 5 7 10 13 13 14 14 15 15 16 16 16 16 16 17 17 17 17 17 17 18 18 18 18 18 19 19 19 19 19 19 19 19 19 20 20 20 20 21 21 21 21 21 20 20 20 20 19 19 19 19 20 20 21 21 22 22 22 22
1 1 2 2 2 2 2 2 2 2 2 2 2 2 1 1 2 3 3 3 3 3 4 3 3 3 4 4 6 9 12 13 14 14 15 15 16 16 16 16 16 16 16 17 17 17 18 18 18 18 18 19 19 19 18 18 19 19 19 19 19 20 20 20 21 21 21 21 20 20 19 19 19 19 19 19 19 19 20 20 21 21 22 22 22 22
2 1 1 1 2 2 2 1 1 2 2 2 2 1 1 1 2 3 3 3 3 3 3 3 3 3 3 4 6 8 11 12 13 14 14 15 16 16 16 16 16 16 16 17 17 17 18 18 18 18 19 19 19 18 18 18 18 19 19 19 20 20 21 21 21 21 21 20 20 19 19 19 19 19 19 19 19 20 20 20 21 22 22 22 22 22
2 2 1 1 1 2 1 1 1 2 1 1 1 2 1 2 2 2 3 3 3 3 3 3 3 3 3 4 5 7 8 9 11 12 13 14 15 15 15 16 16 16 16 17 17 18 18 18 19 19 19 19 19 18 18 18 19 19 19 20 20 21 21 21 21 21 21 20 19 19 18 18 18 19 19 19 20 20 21 21 21 22 22 22 22 23
1 2 2 2 2 2 2 1 1 1 1 1 1 2 2 2 2 2 3 2 2 2 3 4 4 3 2 3 3 4 4 6 7 8 10 11 12 13 14 15 15 16 16 17 17 18 18 19 19 19 19 19 19 18 18 19 19 20 20 20 21 21 21 21 21 21 20 20 19 19 19 18 19 19 19 20 20 20 21 21 22 22 22 22 23 23
1 1 2 2 2 2 2 2 2 1 1 1 1 1 2 3 3 3 2 2 2 2 3 4 4 4 3 2 1 2 3 4 5 6 7 7 8 10 12 13 14 15 16 17 17 18 18 19 19 19 19 19 19 19 19 19 20 20 21 21 21 21 21 21 20 20 20 20 20 19 19 19 19 19 19 20 20 20 21 21 21 21 22 22 22 22
1 1 2 2 1 0 1 2 2 1 1 1 1 1 1 2 4 4 4 3 2 2 2 3 5 5 5 3 1 1 3 5 6 8 9 9 9 10 11 11 12 13 15 16 17 18 18 19 19 19 19 19 19 19 19 20 20 21 21 21 21 21 21 21 20 20 20 20 20 20 20 20 20 20 20 20 20 20 20 21 21 21 21 21 22 22
1 1 1 2 1 1 1 1 2 2 2 1 1 1 1 1 3 4 6 6 5 4 3 3 4 4 5 4 3 2 3 4 5 7 8 10 10 11 11 11 11 12 14 14 15 16 18 19 19 19 19 19 19 19 20 20 21 21 22 21 21 21 21 21 20 20 20 20 20 20 20 20 20 20 20 20 20 20 20 20 21 21 21 21 22 22
1 1 1 1 2 2 1 2 2 2 2 2 2 2 2 2 2 2 4 5 6 6 6 4 4 3 3 3 3 3 4 4 4 5 5 6 7 7 8 8 8 9 10 11 12 14 16 18 19 19 18 18 19 20 20 20 21 21 22 21 21 21 21 21 20 20 20 20 20 20 20 20 20 20 20 20 20 21 21 21 21 21 21 22 22 22
1 1 1 1 2 2 2 2 2 2 2 2 2 2 3 2 2 1 2 3 4 5 5 5 4 4 2 1 1 2 4 5 5 5 5 5 5 5 5 5 5 5 6 6 7 9 13 16 16 17 17 18 18 19 20 21 21 21 22 21 21 21 21 20 20 20 20 20 20 20 20 20 20 20 20 21 21 21 21 21 21 21 22 22 22 21
1 1 2 2 2 2 2 2 2 2 2 1 1 1 2 2 2 2 2 3 3 4 4 4 4 4 2 1 1 2 4 5 5 5 5 5 4 4 4 4 4 4 4 4 5 6 10 11 11 12 15 16 17 18 19 20 21 22 21 21 21 21 21 20 20 20 20 20 20 20 20 20 20 21 21 21 21 21 21 21 21 22 22 22 21 20
1 1 2 1 1 1 1 1 1 1 1 1 1 2 2 2 2 3 3 4 4 4 4 4 4 3 2 1 1 2 4 5 6 6 6 5 4 4 4 4 4 4 5 5 5 6 9 8 8 8 10 13 15 16 18 19 20 21 21 21 21 21 20 20 20 20 20 20 20 20 20 21 21 21 21 21 21 21 21 21 21 22 22 21 20 19
0 1 1 0 1 1 1 1 1 1 2 2 2 2 2 3 3 3 3 4 4 4 4 5 4 3 2 2 1 1 4 5 5 6 6 6 5 4 3 4 5 5 5 5 5 6 6 6 6 7 8 12 16 18 19 19 20 21 21 21 21 20 20 20 20 20 20 20 20 21 21 21 21 21 21 21 21 21 21 21 22 22 22 20 19 19
1 1 1 1 1 2 2 1 1 2 2 2 2 1 1 2 2 2 2 3 3 3 3 4 4 4 4 3 2 2 4 5 5 5 6 6 5 3 2 3 5 6 6 5 5 5 6 6 6 7 8 13 17 19 20 20 20 21 21 21 20 20 20 20 20 20 20 20 21 21 21 21 21 21 21 21 21 21 21 21 22 22 20 19 18 19
1 1 1 1 1 1 2 1 1 2 2 2 1 1 1 1 1 1 1 2 2 3 3 2 2 2 4 4 4 3 5 5 5 5 5 5 5 3 2 3 4 5 5 5 5 5 5 6 6 8 10 15 18 19 20 20 20 20 20 20 20 20 20 20 20 20 20 21 21 21 21 21 21 21 21 21 21 21 21 21 22 21 19 18 18 19
1 1 1 1 1 1 1 2 2 2 1 1 1 2 2 1 1 1 1 1 1 2 2 2 2 2 2 4 4 4 4 4 4 4 5 5 4 3 2 3 4 5 5 5 5 5 5 5 8 11 14 17 18 19 20 20 20 20 20 20 20 20 20 20 20 20 21 21 21 21 21 21 21 21 21 20 20 21 21 22 22 21 19 18 19 19
1 1 2 2 1 1 1 2 2 2 2 2 1 1 2 2 1 1 1 1 1 1 1 2 2 3 3 4 5 5 4 3 3 3 4 4 4 3 3 4 5 5 5 5 5 5 5 5 7 9 13 15 17 18 20 20 20 20 20 20 20 20 20 20 20 20 21 21 21 21 21 21 21 21 20 20 20 20 21 21 21 20 19 19 19 19
1 2 3 3 2 1 1 2 3 3 2 1 0 1 2 2 2 2 2 2 2 1 1 2 2 3 3 4 5 5 4 3 3 3 3 3 3 3 3 3 4 5 5 5 5 5 5 6 5 6 10 13 16 18 19 20 20 20 19 19 20 20 20 20 20 20 21 21 21 21 21 21 20 20 20 20 20 20 21 21 21 20 19 19 19 19
1 2 3 3 3 2 2 3 3 3 2 1 0 1 2 2 2 3 3 3 3 3 3 3 3 4 3 4 5 5 3 1 1 1 2 3 3 3 3 3 4 5 5 5 5 5 5 5 5 6 9 13 16 18 19 19 20 20 19 19 20 20 20 20 20 20 21 21 21 21 21 21 20 20 20 20 20 20 21 21 21 20 19 19 19 19
2 2 3 3 4 3 3 3 3 3 1 1 2 2 2 1 1 2 2 2 2 3 3 4 4 4 4 4 4 4 2 0 1 1 1 3 4 4 4 4 4 5 5 5 5 6 6 5 5 6 8 12 15 17 19 19 19 19 19 20 20 20 20 20 20 20 21 21 21 21 21 20 20 20 20 20 20 20 20 21 20 19 18 18 18 18
2 2 3 3 4 4 3 3 3 2 2 2 2 2 2 2 1 1 1 1 1 2 3 3 4 3 3 3 3 3 1 0 1 2 1 2 3 4 4 4 5 6 6 5 5 6 6 5 5 5 5 9 13 16 18 19 19 19 19 20 20 20 20 20 20 20 21 21 21 21 20 20 20 20 20 20 20 20 20 20 20 19 18 18 18 18
3 3 3 3 4 4 3 3 2 2 1 2 2 2 1 1 1 0 1 0 1 2 3 3 3 3 3 2 2 2 1 0 1 2 1 2 3 4 3 3 4 5 6 5 5 5 5 5 4 4 3 6 10 14 17 18 19 19 19 20 20 20 20 20 20 20 20 20 20 20 20 20 20 20 20 20 20 20 20 20 19 18 17 17 17 17
2 2 2 1 1 2 4 6 7 7 5 2 1 1 1 0 1 1 2 2 2 3 4 4 4 3 3 2 2 2 2 0 1 1 1 2 3 4 3 3 4 5 6 6 6 5 5 5 4 3 3 4 8 12 16 17 18 19 19 20 20 20 20 20 20 20 20 20 20 20 20 20 20 20 20 20 20 20 20 20 19 18 17 15 15 15
3 4 5 6 8 9 10 11 11 11 11 8 5 2 2 1 2 3 3 3 2 3 3 4 4 4 3 3 3 3 2 1 0 1 1 1 3 4 3 3 4 5 6 6 5 5 6 5 4 3 3 3 5 8 14 16 17 18 19 19 20 20 20 20 20 20 20 20 20 20 20 20 20 20 20 20 20 20 20 20 19 17 15 13 11 11
8 8 9 10 11 11 11 11 10 10 10 11 10 8 5 3 3 4 4 3 2 2 2 3 3 4 4 4 4 3 3 2 1 1 1 1 3 3 4 4 4 5 6 5 5 5 6 4 3 3 3 4 4 6 10 13 15 16 17 18 19 19 20 20 20 20 20 20 20 20 20 20 21 21 21 20 20 21 21 20 19 17 13 10 7 5
8 9 10 10 11 11 10 10 10 10 11 11 11 10 7 4 2 2 3 2 2 2 3 3 3 3 3 4 4 3 3 2 2 2 1 2 3 3 3 4 4 4 5 5 5 4 3 3 2 2 3 5 5 5 6 9 11 12 14 16 17 18 19 19 20 20 20 20 20 20 20 20 21 21 21 20 21 21 21 21 19 15 9 7 5 4
6 7 8 8 8 8 7 6 7 8 10 11 11 10 6 3 1 1 2 1 1 2 3 3 3 3 3 4 3 3 2 3 2 2 1 3 4 4 4 4 4 4 4 5 5 4 3 2 2 2 3 5 6 5 4 5 6 7 8 11 13 15 17 18 19 19 19 19 20 20 20 21 21 21 21 21 21 21 21 21 18 13 7 5 4 4
4 4 4 5 5 4 4 4 4 5 7 8 9 8 6 3 0 1 1 1 0 1 2 3 3 2 2 2 3 3 3 3 2 2 2 3 3 3 4 4 4 4 3 4 4 5 5 4 3 3 4 5 5 5 4 4 4 5 5 7 8 10 15 17 17 18 18 18 19 20 20 21 21 21 21 21 21 21 21 21 18 13 7 5 5 5
3 3 3 3 3 3 3 3 3 3 4 5 5 5 5 4 2 1 1 1 1 1 1 2 3 2 1 1 1 2 3 3 3 3 3 3 3 3 3 3 3 3 2 2 3 3 4 4 4 5 5 5 4 4 4 5 5 5 5 6 6 8 13 14 15 15 15 16 17 18 19 20 20 21 21 21 21 21 21 21 18 14 9 7 6 6
3 3 3 3 3 3 3 3 3 3 4 4 4 4 4 4 4 3 2 1 1 1 1 2 3 3 2 2 2 3 3 3 4 5 6 3 2 2 2 3 3 3 3 2 2 2 3 4 5 5 5 5 4 4 4 5 5 5 5 5 5 6 10 11 11 11 11 12 13 14 16 17 18 19 20 20 20 20 21 21 19 17 12 8 7 7
3 3 3 3 3 3 3 3 3 4 4 4 4 5 4 4 4 4 3 2 1 2 2 2 2 3 3 2 2 3 3 4 5 7 7 4 2 2 3 3 3 3 3 3 3 3 3 4 5 5 5 5 4 4 4 4 5 5 5 5 5 5 7 8 8 8 9 9 8 9 10 12 14 15 16 18 18 19 20 20 20 19 16 12 9 7
4 4 4 4 4 4 4 4 4 5 5 5 5 5 5 5 5 4 4 3 2 2 2 3 3 3 3 2 3 3 3 4 5 7 7 4 2 2 2 2 3 3 4 4 4 4 4 5 5 6 5 5 4 4 4 4 4 5 5 5 5 5 5 6 6 7 7 7 7 7 7 7 8 10 12 15 17 18 20 20 20 19 19 16 13 9
4 4 5 5 5 5 5 5 5 5 5 5 5 5 5 5 5 5 5 4 4 3 3 3 3 3 3 3 3 3 4 5 6 7 7 4 2 1 2 2 3 4 4 4 4 4 4 5 6 6 6 5 5 4 4 5 5 5 5 5 5 6 6 6 6 6 6 7 7 7 7 7 7 8 9 13 16 18 19 19 19 19 18 17 16 13
4 4 4 5 5 5 5 5 5 5 6 5 5 5 5 5 5 5 5 5 4 4 4 4 3 3 4 4 4 4 5 5 5 6 6 4 2 1 1 2 3 4 4 4 4 5 4 5 5 5 5 4 4 5 5 6 6 6 6 6 6 6 6 6 6 6 6 7 7 8 8 8 8 8 9 13 14 15 15 16 16 16 16 16 16 15
4 4 4 4 5 5 5 5 5 5 5 5 5 6 6 5 5 5 5 5 5 5 4 4 4 4 5 5 5 4 4 5 5 5 5 3 1 0 1 2 3 3 3 3 3 4 4 4 5 5 4 4 4 5 6 7 7 7 7 7 6 5 5 5 6 6 6 7 8 8 9 8 7 7 7 9 9 8 8 9 10 12 13 12 13 14
4 4 5 5 5 5 5 5 5 5 5 5 5 5 5 5 5 5 5 5 5 4 4 4 4 4 5 5 5 4 4 4 4 4 4 2 1 1 1 2 3 3 2 2 2 2 3 3 4 4 4 4 5 5 5 5 6 7 7 7 6 5 6 6 6 7 7 7 8 8 8 7 6 6 6 7 7 6 6 6 7 8 8 7 8 10
4 5 5 5 5 4 4 4 4 4 4 5 5 5 5 5 4 4 4 4 4 4 4 4 4 4 4 4 4 4 4 4 4 4 3 2 1 1 1 2 3 3 3 2 1 1 2 3 3 4 4 4 5 5 5 5 6 7 9 7 6 6 8 7 7 7 7 7 7 7 7 6 6 6 6 7 7 7 7 6 6 7 7 6 5 6
5 5 5 4 4 4 4 4 4 4 4 4 4 5 5 5 5 5 4 4 4 3 3 4 4 4 4 3 3 4 4 5 5 5 4 3 2 2 2 2 3 3 3 2 2 2 2 2 3 3 3 4 4 5 5 6 7 9 10 8 7 7 8 8 7 7 6 7 7 7 7 7 7 7 7 7 7 6 6 6 6 6 6 5 4 4
5 5 4 4 4 4 3 4 4 4 4 4 4 5 5 6 6 6 5 5 5 4 4 4 4 4 4 4 4 4 4 4 5 6 5 4 3 2 2 2 3 3 3 3 3 2 2 3 3 3 3 3 3 4 4 6 7 8 8 7 8 8 8 7 6 6 6 7 7 7 7 7 7 7 7 7 6 6 6 6 7 8 7 5 4 3
4 4 3 3 3 3 4 4 5 5 5 5 5 5 5 5 5 6 6 5 5 5 5 5 4 3 3 3 4 4 4 4 4 5 6 5 4 4 3 3 3 3 2 3 3 3 3 3 3 4 4 3 2 3 5 6 7 7 7 8 8 8 6 6 6 6 6 6 6 6 6 6 6 6 6 6 5 5 5 6 7 8 7 5 4 3
3 3 3 3 3 4 4 4 4 5 5 5 5 5 5 5 5 6 5 5 5 6 5 5 4 3 2 3 3 4 4 4 4 5 5 6 6 6 4 4 4 3 2 2 3 3 3 3 3 3 3 2 2 3 5 5 6 7 7 8 8 7 6 6 7 7 6 6 6 6 6 6 5 5 4 4 5 5 5 5 4 4 5 4 4 3
3 4 4 4 5 5 5 5 5 5 4 5 5 5 5 5 5 5 5 5 5 5 5 5 4 3 3 4 4 3 4 4 4 4 4 6 8 8 6 5 5 4 3 2 2 2 3 3 4 3 2 1 2 3 4 5 6 7 8 9 8 8 7 7 7 7 7 6 6 6 6 6 5 5 4 4 4 5 5 5 5 5 5 4 4 4
4 4 5 5 5 5 5 5 5 4 4 4 4 5 5 5 4 4 5 5 5 5 4 4 4 4 4 4 4 4 4 4 5 4 5 5 6 6 6 6 6 5 4 4 4 4 3 4 4 3 2 2 2 3 4 5 6 7 8 9 8 7 7 7 7 7 7 7 7 7 7 6 5 5 5 5 5 5 5 5 5 5 5 5 5 4
5 5 5 5 5 4 4 5 4 4 5 5 4 4 4 4 4 4 4 4 4 4 4 4 3 3 4 4 5 5 5 5 5 5 5 6 6 6 6 6 7 6 5 4 4 4 5 5 4 3 1 1 2 3 4 5 6 7 8 8 8 7 6 6 6 7 7 7 7 7 7 6 5 5 5 5 5 5 5 4 4 4 4 5 5 5
5 5 5 4 4 4 5 5 5 5 5 4 4 4 4 5 6 6 4 4 4 4 5 4 4 4 4 4 4 5 5 5 5 5 6 6 6 6 6 6 6 6 6 5 5 4 4 4 4 4 3 2 1 3 5 6 6 7 7 7 7 6 6 6 7 7 7 7 7 7 7 6 5 5 6 6 5 5 5 5 5 4 4 4 5 5
4 4 4 4 4 4 5 5 5 5 5 5 5 4 4 5 6 6 4 4 4 4 4 4 4 4 4 4 4 5 5 5 5 5 5 5 6 6 6 6 6 6 5 5 4 4 3 3 3 5 5 4 2 2 4 5 6 6 6 6 6 6 5 6 6 7 7 7 7 7 6 5 5 5 5 6 6 6 6 6 5 5 4 4 5 5
3 3 3 3 4 4 4 5 5 5 5 5 5 4 4 4 4 4 4 4 4 4 3 4 4 4 4 4 4 5 5 5 5 5 5 5 5 5 6 6 6 6 5 5 5 5 4 3 2 3 6 3 1 3 4 5 5 6 6 5 5 5 5 5 6 7 7 7 7 7 6 6 5 5 5 6 6 7 7 7 6 6 6 6 6 6
3 3 3 3 3 4 4 4 4 5 5 5 5 5 4 4 4 4 3 4 4 4 4 3 3 3 4 5 5 5 5 5 5 5 5 5 5 5 6 6 6 6 6 6 6 6 5 5 4 3 3 5 8 8 4 5 5 6 6 6 5 5 5 5 5 6 7 7 6 6 6 6 6 6 6 6 6 7 7 7 7 7 7 7 7 8
Wind_Direction
274 282 306 350 343 318 304 321 13 357 318 315 316 320 325 331 326 316 313 322 323 320 317 314 312 312 315 321 325 328 331 333 335 337 339 340 340 340 340 340 339 339 338 337 337 336 336 336 336 336 335 335 335 336 336 336 335 335 334 333 332 331 330 328 327 326 324 323 322 322 321 321 322 322 323 323 324 325 324 323 321 318 316 314 314 315
306 307 316 7 18 353 308 305 299 141 301 305 310 318 329 330 326 322 323 327 324 319 316 314 313 312 310 314 322 328 331 335 338 341 342 343 343 343 342 342 341 341 340 339 339 338 338 338 337 337 337 337 337 338 338 338 337 337 336 335 333 332 330 329 328 326 325 324 324 323 323 323 324 325 325 326 326 325 324 322 320 318 316 316 318 319
323 324 319 354 20 8 308 304 284 226 231 274 293 307 323 323 321 322 325 326 324 320 314 311 311 311 308 309 319 327 331 337 341 344 345 345 345 344 344 344 343 342 341 341 340 340 339 339 339 339 339 339 340 340 340 340 339 338 337 336 334 332 331 330 329 328 327 327 326 326 326 326 327 327 327 327 327 326 324 322 321 320 319 320 321 322
323 323 314 331 342 329 279 290 291 278 250 267 284 299 314 311 308 307 310 314 317 316 312 308 308 309 307 306 314 323 331 338 343 345 346 346 346 346 345 345 344 343 342 342 341 341 341 341 341 341 341 342 342 342 342 342 341 339 338 336 334 333 332 332 331 331 330 330 330 330 330 330 330 331 330 329 328 327 326 324 324 323 323 323 323 322
302 296 298 321 323 311 285 290 295 295 287 287 295 307 317 302 297 298 301 308 312 313 312 312 310 308 306 304 312 322 333 340 345 346 347 347 347 347 346 346 345 344 343 343 342 342 342 342 343 343 344 344 345 345 344 343 342 340 338 337 336 335 335 336 335 335 335 334 334 335 335 335 335 335 334 333 332 331 330 328 327 327 326 325 324 324
286 283 294 308 305 300 303 319 322 318 314 315 316 321 325 311 306 307 309 313 314 313 311 311 308 303 300 297 311 323 334 341 345 346 347 347 347 347 347 346 345 344 344 343 343 343 343 344 345 345 346 347 347 346 345 344 343 341 340 339 339 339 339 340 340 340 339 339 339 340 340 341 340 340 338 338 337 336 334 332 331 330 328 328 328 328
293 301 328 321 301 291 305 324 335 339 342 334 333 333 333 324 315 307 301 305 307 308 310 311 309 304 296 294 308 322 334 340 343 344 345 346 347 347 347 346 345 344 344 344 344 344 344 345 347 348 349 349 348 348 347 345 344 343 342 342 342 342 343 343 343 343 343 343 344 344 345 345 344 343 342 341 340 339 338 336 334 332 331 331 332 332
321 330 353 351 337 325 320 325 336 348 354 349 347 341 335 331 318 300 291 295 300 311 321 325 324 321 311 300 308 321 334 339 338 338 340 344 345 346 346 346 345 344 344 344 344 345 346 347 349 350 350 350 350 349 348 346 345 345 344 344 345 345 345 345 345 345 345 345 346 346 347 346 346 345 344 343 342 341 339 337 336 334 334 334 334 333
22 350 348 355 355 346 333 327 331 347 9 25 25 2 341 335 328 317 309 309 312 321 333 336 334 330 324 313 316 337 347 346 341 338 340 344 346 346 345 345 344 344 343 344 345 346 347 349 350 351 352 351 350 349 348 347 347 346 346 346 347 347 346 346 346 346 346 346 347 348 348 347 347 346 344 343 342 340 339 337 336 335 335 334 333 331
41 5 334 327 329 338 328 311 313 326 4 37 71 82 31 347 340 337 337 332 331 335 341 340 333 327 323 324 339 5 355 344 342 343 346 345 345 344 344 344 343 342 343 344 345 346 348 350 352 352 352 351 350 350 349 348 348 348 348 348 348 347 347 347 347 347 347 347 348 349 349 348 347 346 345 343 341 340 338 336 336 335 335 333 331 329
12 351 330 316 309 291 244 271 286 307 348 14 27 40 52 14 357 348 342 337 338 341 345 340 329 321 319 324 338 353 350 339 339 343 345 343 342 342 343 342 340 340 342 343 345 347 349 352 353 353 352 351 350 349 348 348 348 349 349 349 348 348 348 348 348 348 348 349 349 350 349 349 348 346 344 343 341 339 338 337 336 336 334 332 329 326
359 334 328 326 329 329 319 303 306 324 359 15 11 1 349 359 7 356 339 332 333 336 337 331 321 310 306 315 328 338 342 343 343 343 342 340 340 340 340 340 339 339 340 341 343 346 349 352 353 352 351 349 348 347 348 348 349 350 350 349 349 349 349 349 349 350 350 350 350 350 349 348 347 345 343 342 341 339 338 338 337 336 334 331 328 326
348 333 344 352 356 353 344 342 346 357 12 23 14 352 329 330 339 342 319 313 318 323 326 324 317 308 298 314 330 334 338 344 345 343 340 337 337 338 340 338 337 337 337 337 339 344 350 352 352 351 349 347 345 345 346 348 350 350 350 349 349 349 349 350 350 350 350 350 350 349 348 347 345 344 343 342 341 340 340 339 338 336 332 330 329 330
348 355 16 14 6 354 350 359 6 6 356 359 327 292 285 299 315 327 322 314 312 311 310 310 308 304 299 320 325 329 341 344 343 342 340 335 334 336 339 337 336 335 335 338 340 345 350 353 351 348 346 343 342 343 345 349 350 351 350 349 349 349 350 350 350 350 350 349 349 348 347 346 345 343 342 342 341 341 341 340 338 335 332 331 332 336
359 23 40 20 350 326 325 346 358 326 284 262 258 266 282 303 325 339 341 331 325 320 317 313 306 300 290 293 292 320 350 349 345 340 337 331 329 334 343 339 335 335 338 341 342 345 350 352 349 343 339 337 338 341 346 349 350 350 349 349 348 349 350 350 350 349 349 348 348 347 346 345 344 343 343 343 343 343 342 340 337 334 331 334 338 344
141 94 90 62 298 289 274 253 244 256 264 263 267 289 322 331 337 343 345 331 327 328 336 336 333 325 308 291 289 340 3 355 347 338 332 326 325 335 357 349 342 339 341 342 342 344 347 348 345 340 333 333 337 341 345 349 350 350 349 348 348 349 350 350 349 349 348 347 347 346 346 345 344 344 344 344 344 343 343 340 336 334 333 339 346 351
136 118 122 138 268 277 269 250 240 244 259 268 272 281 311 320 324 327 327 322 326 333 344 348 344 337 327 325 340 9 14 358 344 333 327 320 320 331 8 359 346 339 338 340 340 342 344 344 341 336 330 333 337 342 346 349 349 349 348 348 348 349 350 349 349 348 347 347 346 346 345 344 344 344 344 345 345 344 342 339 335 334 336 345 351 354
149 149 138 145 238 266 271 266 256 251 254 270 280 282 278 273 284 299 305 315 327 334 338 344 337 324 320 320 326 346 10 356 340 327 321 315 313 320 355 356 345 336 334 335 337 340 343 340 338 333 328 333 337 342 346 348 349 348 347 348 348 349 349 349 348 348 347 346 346 345 345 344 344 344 345 345 345 344 341 337 335 336 341 352 356 356
181 178 158 171 211 248 266 258 250 245 248 263 288 308 317 304 293 275 272 286 305 316 318 317 305 290 286 292 303 321 351 346 333 321 316 311 310 315 335 344 341 336 333 333 335 337 339 334 331 329 327 331 336 341 346 347 347 347 347 347 348 349 349 348 348 347 347 346 345 345 344 344 344 345 346 346 345 343 340 336 335 337 346 354 356 355
174 196 195 188 190 222 272 257 241 229 226 235 259 305 313 306 304 292 273 269 264 264 265 284 286 283 277 286 296 309 330 340 333 318 305 303 304 309 323 341 340 336 332 330 331 334 334 331 326 324 325 329 335 341 345 346 346 346 346 347 348 349 348 348 347 347 346 346 345 344 343 344 345 346 346 346 345 343 339 336 337 341 350 356 357 354
155 211 219 190 169 166 250 248 237 225 219 205 185 336 302 306 310 310 300 298 295 294 295 295 290 284 280 290 295 301 319 342 338 319 299 298 299 307 323 337 338 333 329 327 329 331 331 327 322 318 318 327 334 340 344 345 345 345 346 348 349 349 348 347 347 347 346 345 344 344 344 344 345 346 346 345 344 342 339 337 339 344 353 356 356 353
148 211 223 197 182 183 222 234 235 232 221 175 197 292 296 309 319 323 321 322 321 318 315 301 290 281 276 278 280 287 318 355 335 295 303 307 310 315 329 336 334 330 328 327 328 329 327 322 316 312 313 324 332 338 342 343 344 345 347 348 348 348 348 347 346 346 345 344 344 343 343 344 345 346 346 345 344 342 339 339 341 347 355 357 355 352
148 188 211 202 202 209 226 237 245 249 233 201 211 233 245 254 283 296 304 310 307 301 296 287 280 274 267 267 271 281 313 40 148 165 348 316 315 320 333 337 335 332 328 327 327 326 323 318 311 308 309 323 331 337 341 343 344 345 347 348 348 348 347 346 346 345 345 344 343 343 343 344 345 346 345 345 343 342 340 340 343 349 355 356 354 351
163 185 198 203 211 219 232 246 257 258 238 219 216 216 207 200 209 228 239 253 266 274 283 285 285 282 271 265 270 282 298 124 121 114 67 316 310 315 328 335 335 332 327 326 324 321 318 312 305 300 299 319 329 335 339 342 344 345 347 348 348 347 346 345 345 344 344 343 342 342 343 344 345 345 345 344 343 342 341 341 345 350 356 356 353 350
184 194 203 208 214 221 233 256 279 287 227 211 210 212 209 221 229 208 88 46 320 306 303 306 307 307 299 292 294 295 282 132 113 103 65 314 307 310 320 334 335 330 324 322 321 317 313 307 302 298 297 314 326 333 338 341 343 345 347 347 347 346 345 344 343 343 342 342 341 342 342 344 345 345 345 344 343 342 341 342 345 350 354 354 352 349
189 201 214 251 289 316 337 343 351 356 356 359 121 144 143 90 6 5 7 1 350 340 331 328 326 322 318 319 316 309 293 82 109 106 78 324 314 315 322 337 335 328 321 321 321 318 311 305 302 300 302 308 322 331 337 340 343 344 346 346 345 345 344 343 342 342 341 341 341 341 342 344 344 345 345 344 343 342 341 343 346 351 354 354 351 346
31 20 16 14 12 10 8 6 3 360 356 360 11 54 99 72 17 357 344 338 341 345 347 342 335 328 328 332 326 316 309 326 110 140 135 327 319 318 325 335 334 328 323 322 319 315 309 305 303 303 301 296 309 325 336 339 342 343 344 344 343 343 342 341 341 340 340 340 340 341 342 343 344 344 344 344 343 342 341 343 346 350 354 353 349 342
28 28 27 26 23 20 17 13 9 6 5 5 11 23 52 50 20 351 328 320 330 349 354 343 333 327 326 326 319 310 306 300 266 234 217 321 322 319 323 331 332 329 326 321 314 307 302 298 295 294 294 301 311 324 333 338 340 342 342 342 341 340 339 339 339 339 339 339 340 341 342 343 344 344 344 343 342 341 341 343 346 350 353 350 342 326
25 28 30 29 27 24 21 16 12 11 13 17 20 25 36 45 27 337 303 303 329 349 339 331 323 315 310 308 305 301 298 284 265 255 281 332 327 320 323 330 333 332 329 321 314 308 300 289 280 281 292 315 323 328 329 335 337 339 338 338 337 336 336 336 337 337 337 338 339 340 342 343 343 343 343 342 341 341 341 343 345 348 352 345 332 317
13 19 22 23 22 21 18 13 9 10 14 20 22 24 31 46 44 284 274 280 332 340 325 320 317 313 310 314 315 314 302 282 266 263 349 346 334 324 329 332 333 334 335 329 326 323 320 304 293 298 312 325 328 328 324 330 333 334 333 334 333 332 332 334 334 335 335 336 338 340 341 342 342 342 342 341 341 340 340 342 345 347 349 339 328 321
1 8 10 7 7 7 8 6 3 5 9 16 17 17 17 23 11 229 231 219 270 313 312 310 311 313 323 332 331 321 303 289 281 291 14 355 333 319 329 329 329 332 339 338 333 328 324 321 321 326 331 331 328 326 325 327 329 330 329 328 327 327 329 331 332 333 333 335 336 338 339 340 340 341 341 340 340 340 340 342 345 347 347 341 335 331
359 5 5 357 355 358 4 3 360 360 3 9 10 5 358 352 335 277 229 219 224 257 287 294 297 299 297 280 271 274 282 287 301 324 360 351 329 312 320 322 323 324 328 330 324 319 316 320 324 328 332 329 326 324 325 327 329 329 328 326 324 323 326 328 330 330 330 332 334 336 337 338 338 339 339 339 338 339 340 342 345 347 348 344 340 338
6 6 4 2 4 6 9 6 3 3 5 6 3 356 348 340 332 320 287 242 223 226 253 281 290 292 283 252 240 246 264 273 301 324 344 346 331 313 313 319 321 321 320 314 302 295 297 308 314 319 323 323 322 320 321 324 326 327 326 324 321 319 323 326 327 327 327 329 331 333 334 335 336 336 337 336 337 337 339 342 345 347 348 346 344 342
13 12 11 12 13 13 13 9 8 8 9 7 2 355 347 340 335 331 324 300 257 227 223 248 270 284 290 282 270 265 271 274 299 319 339 342 330 311 308 316 321 324 328 325 319 311 302 308 313 316 317 319 319 317 317 321 323 323 320 318 316 316 318 322 323 323 323 325 326 328 330 331 332 333 334 334 335 336 339 342 345 347 348 347 346 345
20 18 16 16 16 15 13 10 9 9 10 6 360 353 347 343 338 333 328 319 299 259 228 226 234 246 261 272 281 287 289 288 307 322 335 338 329 310 307 313 324 332 336 334 331 327 320 318 318 319 317 318 318 317 316 318 320 320 316 316 315 315 315 318 319 320 321 323 324 324 326 326 328 330 331 331 332 335 337 341 343 345 347 348 348 347
27 21 18 17 16 14 11 8 7 6 6 2 356 350 346 341 337 332 327 322 314 302 280 252 236 227 224 232 249 269 282 291 309 321 330 332 327 308 305 314 328 337 340 337 334 330 324 320 320 320 320 320 319 318 320 323 324 324 322 322 320 318 314 316 318 319 321 323 325 326 326 326 327 327 326 328 330 332 335 338 341 343 345 346 347 348
31 24 18 18 16 12 8 6 6 5 3 357 352 348 345 340 335 330 324 321 318 315 311 297 280 260 245 232 234 246 266 285 303 315 323 324 319 289 289 313 332 342 345 337 332 328 324 319 318 319 321 321 320 320 323 327 330 330 329 326 324 320 316 317 319 321 322 325 326 326 326 326 326 325 323 326 328 330 333 335 337 339 342 344 345 347
28 22 17 17 15 12 8 6 5 3 359 353 347 343 340 334 329 325 320 319 317 316 315 313 306 295 284 276 266 260 267 282 294 304 315 319 315 274 323 325 333 338 338 328 323 320 321 318 318 318 317 314 312 314 318 323 327 327 325 323 320 318 318 321 324 326 327 326 325 323 323 324 323 322 321 324 326 328 330 331 333 335 338 341 343 345
23 20 16 15 14 10 6 4 2 358 352 347 342 337 333 328 323 320 316 315 314 313 312 312 310 307 302 299 298 300 305 306 310 316 323 324 317 305 338 337 334 329 320 308 300 299 303 305 306 308 310 310 312 313 315 318 320 320 319 320 321 323 326 327 329 329 328 326 323 322 321 321 321 322 323 325 327 329 331 328 329 332 337 340 342 344
18 19 17 13 10 7 4 360 354 348 344 340 337 335 335 333 330 327 322 321 322 322 319 317 314 310 309 315 324 334 342 339 340 343 344 335 313 291 313 329 327 322 315 303 283 271 274 278 282 286 291 297 304 309 313 315 316 318 321 325 327 329 330 329 329 328 327 324 322 321 320 320 323 326 328 330 330 332 332 330 331 335 342 347 347 344
16 17 12 5 1 360 360 353 348 345 345 344 343 344 345 343 341 338 336 338 339 339 337 334 329 325 325 327 330 334 340 339 342 345 343 332 305 279 284 308 315 317 315 303 286 266 257 261 269 276 280 283 291 298 302 306 312 317 324 324 322 319 320 322 324 325 325 321 319 319 321 324 328 331 331 330 329 327 327 326 329 336 346 351 350 345
17 13 3 355 351 350 349 348 351 354 356 355 353 351 350 347 344 342 343 345 346 348 350 348 343 339 336 331 328 326 328 331 336 338 336 326 311 292 285 297 305 309 312 305 293 276 256 251 257 266 273 279 289 297 302 305 311 318 324 321 319 317 316 319 322 324 324 321 319 320 324 327 330 332 331 328 325 321 321 323 331 339 347 347 344 337
12 4 352 347 343 342 342 352 358 1 2 0 358 354 350 346 343 343 344 345 346 347 349 347 342 336 334 331 329 328 327 325 327 330 331 325 318 309 303 301 299 299 307 308 301 289 271 259 253 253 255 256 267 286 298 307 313 318 322 324 327 328 326 324 323 323 322 320 320 322 327 329 329 328 325 323 320 318 318 323 330 336 342 337 332 325
4 358 352 352 350 350 355 2 4 2 0 357 353 349 346 344 343 344 347 345 344 345 348 344 337 331 339 342 340 335 333 330 328 328 329 332 334 333 325 316 306 295 287 289 291 293 295 288 273 255 240 235 251 275 292 305 315 321 326 330 331 331 323 316 317 319 321 321 323 327 331 332 330 326 321 320 320 320 321 324 326 328 331 327 323 318
3 5 5 2 359 356 358 358 358 358 357 353 350 346 344 342 343 346 350 346 344 344 346 343 341 345 1 359 353 346 344 342 340 337 332 334 337 338 334 325 315 307 291 265 252 255 275 284 283 277 266 250 256 270 289 306 317 323 327 330 330 325 315 311 314 319 324 326 329 333 336 335 332 328 328 329 329 326 324 326 326 326 325 324 322 316
13 11 7 1 356 351 350 350 351 353 354 351 349 346 343 341 341 346 351 348 345 342 342 344 350 359 6 2 358 355 354 351 348 345 342 338 337 337 336 331 324 315 301 278 254 236 227 239 253 270 303 314 294 280 288 309 321 326 327 328 327 324 318 318 321 325 329 331 334 337 339 337 336 337 341 339 334 328 324 323 324 325 325 325 323 318
15 9 1 351 344 340 341 346 349 352 353 351 348 346 344 341 343 347 353 352 347 342 340 343 353 5 9 4 1 359 357 352 348 346 346 344 342 341 340 335 328 321 307 292 271 249 233 225 218 209 190 319 313 308 310 321 326 327 325 324 323 324 324 327 329 331 333 336 339 341 342 342 345 348 347 342 335 329 325 323 319 318 319 321 321 318
13 4 352 342 336 336 340 346 350 352 351 348 346 344 346 346 350 354 353 350 347 345 346 348 354 3 9 6 4 0 358 351 347 344 345 344 343 342 343 338 331 325 318 309 294 275 253 230 205 184 169 177 269 304 314 324 328 327 322 321 321 324 327 330 333 335 338 341 344 346 347 351 352 351 346 342 339 336 332 327 322 318 316 318 318 317
10 357 342 335 333 336 341 346 348 350 349 346 344 344 346 348 353 355 349 344 343 344 348 350 353 359 9 6 1 356 354 349 344 342 343 343 341 340 339 337 335 331 327 326 322 313 294 258 214 193 182 179 199 284 309 319 323 322 318 318 321 326 331 336 339 342 343 345 348 351 354 355 354 350 345 343 341 338 334 331 327 324 321 322 321 318
360 346 335 332 334 337 340 344 347 348 347 345 344 343 342 345 350 350 345 342 341 343 345 345 349 357 9 5 358 351 350 345 341 340 341 340 339 338 337 338 339 339 339 343 345 346 342 335 292 223 206 212 300 336 324 323 321 320 319 322 326 332 338 344 347 348 348 348 350 352 355 355 355 353 350 346 341 338 336 336 334 333 332 332 330 326
348 338 334 334 335 338 339 343 345 346 345 345 343 342 340 343 346 347 346 347 347 347 345 343 347 358 11 5 355 347 344 341 340 338 336 335 334 335 336 338 342 346 350 353 355 356 356 354 346 330 310 342 357 1 347 334 328 327 329 332 335 339 345 351 352 352 351 350 351 352 353 354 355 355 353 347 343 340 339 338 337 336 336 336 334 331